Miscellaneous Local Product
Issued by NWS Hastings, NE

Home | Current Version | Previous Version | Graphics & Text | Print | Product List | Glossary On
Versions: 1 2 3 4 5 6 7 8 9 10 11 12 13 14 15 16 17 18 19 20 21 22 23 24 25 26 27 28 29 30 31 32 33 34 35 36 37 38 39 40 41 42 43 44 45 46 47 48 49 50
000
AXUS43 KGID 300202
MISGRI

GID CWA HOURLY WEATHER ROUNDUP
NATIONAL WEATHER SERVICE HASTINGS NE
900 PM CDT THU SEP 29 2016

NOTE: "FAIR" INDICATES FEW OR NO CLOUDS BELOW 12,000 FEET WITH NO
SIGNIFICANT WEATHER AND/OR OBSTRUCTIONS TO VISIBILITY.

...SOUTH CENTRAL NEBRASKA...

CITY           SKY/WX    TMP DP  RH WIND       PRES   REMARKS
GRAND ISLAND   CLEAR     54  46  74 E3        30.34R
HASTINGS       CLEAR     55  44  66 E5        30.34S
KEARNEY        CLEAR     55  43  62 SE7       30.33R
ORD            CLEAR     51  43  74 CALM      30.32S
YORK           CLEAR     54  46  76 E5        30.34S
AURORA         CLEAR     53  47  81 E3        30.34S
LEXINGTON      CLEAR     56  43  61 SE6       30.32R
HOLDREGE       CLEAR     49  41  73 SE6       30.33R
HEBRON         CLEAR     53  47  79 CALM      30.33R

...NEBRASKA PANHANDLE...

CITY           SKY/WX    TMP DP  RH WIND       PRES   REMARKS
CHADRON        CLEAR     69  41  36 SE21      30.18R
ALLIANCE       CLEAR     61  42  49 SE13      30.24S
SCOTTSBLUFF    CLEAR     67  44  43 SE17      30.22R
SIDNEY         CLEAR     64  42  44 SE16      30.26S

...WESTERN AND NORTH CENTRAL NEBRASKA...

CITY           SKY/WX    TMP DP  RH WIND       PRES   REMARKS
VALENTINE      CLEAR     60  39  45 SE12      30.28R
AINSWORTH      CLEAR     56  44  62 SE9       30.30S
ONEILL         CLEAR     56  43  61 CALM      30.33S
BROKEN BOW     CLEAR     54  44  69 SE7       30.32R
IMPERIAL       CLEAR     59  40  49 SE10      30.29R
NORTH PLATTE   CLEAR     52  41  66 E7        30.31R
MCCOOK         CLEAR     58  43  57 SE9       30.30R

...EASTERN NEBRASKA...

CITY           SKY/WX    TMP DP  RH WIND       PRES   REMARKS
NORFOLK        CLEAR     54  45  71 SE5       30.34R
SO SIOUX CITY  CLEAR     61  48  62 E8        30.33S
TEKAMAH        CLEAR     54  47  77 E7        30.33R
COLUMBUS       CLEAR     54  39  58 CALM      30.35R
ALBION         CLEAR     53  46  75 CALM      30.34R
OMAHA EPPLEY   CLEAR     61  46  57 E8        30.33R
OFFUTT AFB     CLEAR     52  50  93 NE3       30.31S
MILLARD        CLEAR     57  52  83 CALM      30.33R
LINCOLN        CLEAR     57  48  72 CALM      30.34R
NEBRASKA CITY  CLEAR     60  42  51 CALM      30.32R
BEATRICE       CLEAR     57  48  72 NE3       30.33R
FALLS CITY     CLEAR     59  48  67 N3        30.31R

...NORTHERN KANSAS...

CITY           SKY/WX    TMP DP  RH WIND       PRES   REMARKS
GOODLAND       CLEAR     60  40  47 SE12      30.28S
HILL CITY      CLEAR     53  46  77 E6        30.32S
NORTON         CLEAR     54  39  58 E5        30.31S
PHILLIPSBURG   CLEAR     55  46  71 E3        30.33S
SMITH CENTER   HAZE      55  46  71 CALM      30.34R VSB 3/4
HAYS           CLEAR     55  39  54 E8        30.32S
RUSSELL        CLEAR     57  47  69 E7        30.32R
CONCORDIA      CLEAR     57  48  72 CALM      30.33R
SALINA         CLEAR     63  49  60 E3        30.32R
TOPEKA         CLEAR     58  52  80 CALM      30.30R



USA.gov is the U.S. government's official web portal to all federal, state and local government web resources and services.